Starlink 30162

operational
NORAD ID: 57446 Int'l Des: 2023-105 Owner: SPXS Country: US Constellation: starlink
LEOCIRCULAR

Starlink 30162について

説明を読み込み中...

リアルタイム位置

3D地球を読み込み中...

次回通過

高度履歴

Altitude vs Time

uPlot chart will show altitude changes over time

軌道要素

1 57446U 23105S 25303.79599514 .00000299 00000-0 37192-4 0 9995
2 57446 43.0026 234.5064 0001086 268.2701 91.8017 15.02538055126175
Epoch: Oct 30, 2025 • Age: 25 hours

現在のステータス

高度 566.6 km
速度 7.58 km/s
衛星直下点 -29.99°S, 105.85°E
打ち上げ日 Jul 24, 2023
運用期間 2.2 years
タイプ internet

技術仕様

分類 Payload
質量 730.00 kg
乾燥質量 700.00 kg
総質量 730.00 kg
長さ 0.30 m
直径 4.10 m
スパン 29.00 m
形状 Box + pan
製造者 SPXS
バスタイプ Starlink V2M
フェーズステータス In Orbit
所有者/国 SPXS/US

大規模コンステレーション

Loading constellations...